Погода в Агараке

Армения     38°51′54″N   46°11′46″E
темп.,
°C
ветер,
м/с
пор.,
м/с
влажн.,
%
обл.,
%
осадки,
мм/ч
давл.,
гПа
погр.,
м
19 сентября, вс
вс1901:00+13вюв33724 0.0 101735
04:00+12вюв22750 0.0 101719
07:00+12вюв22760 0.0 101715
10:00+19всв22480 0.0 1016568
13:00+24св32301 0.0 10121134
16:00+25св43280 0.0 10111317
19:00+19всв33470 0.0 101335
22:00+15в22590 0.0 101626
20 сентября, пн
пн2001:00+14вюв22650 0.0 101526
04:00+13вюв22680 0.0 101518
07:00+12вюв22700 0.0 101618
10:00+19всв22440 0.0 1014568
13:00+25св32270 0.0 10111150
16:00+27св43231 0.0 10091578
19:00+20всв33380 0.0 101127
22:00+16вюв22505 0.0 101522
21 сентября, вт
вт2101:00+15вюв33545 0.0 101526
04:00+14юв22590 0.0 101620
07:00+14юв22610 0.0 101615
10:00+20всв22410 0.0 1015738
13:00+25св32290 0.0 10121492
16:00+26св43272 0.0 10101524
19:00+20всв32420 0.0 101225
22:00+16в22532 0.0 101416
22 сентября, ср
ср2201:00+15вюв22577 0.0 101314
04:00+14вюв22610 0.0 101213
07:00+14вюв226287 0.0 101113
10:00+21всв224094 0.0 1010613
13:00+26св3227100 0.0 10061022
16:00+25всв432930 0.0 1005887
19:00+18всв33520 0.0 100730
22:00+15в33660 0.0 100941
23 сентября, чт
чт2301:00+13в228646 0.0 100926
04:00+12всв22879 0.0 100813
07:00+11в118421 0.0 100913
10:00+20св12437 0.0 1007541
13:00+27юв04180 0.0 10032202
16:00+28всв14180 0.0 10012570
19:00+19всв22510 0.0 100447
22:00+16вюв12580 0.0 100614